{"data":{"norad_id":42803,"epoch":"2026-05-25T00:10:43.339584Z","epoch_age_seconds":84722,"freshness":"FRESH","line1":"1 42803U 17039A   26145.00744606  .00000043  00000+0  83998-5 0  9990","line2":"2 42803  86.3962 331.8723 0002322  91.8512 268.2950 14.34217503467868","mean_motion":14.34217503,"eccentricity":0.0002322,"inclination_deg":86.3962,"raan_deg":331.8723,"arg_perigee_deg":91.8512,"mean_anomaly_deg":268.295,"bstar":8.3998e-6,"rev_number":46786,"period_min":100.4031813158,"perigee_km":776.00639801666,"apogee_km":779.32955384748,"semimajor_km":7155.8049759321,"source":"CELESTRAK","updated_at":"2026-05-25T13:38:14.799564Z"}}